EW4427 Weather Reports


time (UTC)temp
C
wind
direction
speed
KPH
gust
KPH
rain 1hr
cm
rain 24hr
cm
rain mn
cm
humidity
%
barometer
mb
20260906052049 18 0 0.0 0.0 0.00 0.00 0.00 91 1017.9
20260906051624 18 0 0.0 0.0 0.00 0.00 0.00 91 1017.9
20260906051046 18 0 0.0 0.0 0.00 0.00 0.00 91 1017.9
20260906050546 18 0 0.0 0.0 0.00 0.00 0.00 91 1017.9
20260906050108 18 0 0.0 0.0 0.00 0.00 0.00 91 1017.8
20260906045548 18 0 0.0 0.0 0.00 0.00 0.00 91 1017.8
20260906045045 18 0 0.0 0.0 0.00 0.00 0.00 91 1017.8
20260906044606 18 0 0.0 0.0 0.00 0.00 0.00 91 1017.7
20260906044046 18 0 0.0 0.0 0.00 0.00 0.00 91 1017.6
20260906043545 18 0 0.0 0.0 0.00 0.00 0.00 91 1017.5
20260906043055 18 0 0.0 0.0 0.00 0.00 0.00 91 1017.5
20260906042547 18 0 0.0 0.0 0.00 0.00 0.00 91 1017.4
20260906042047 18 0 0.0 0.0 0.00 0.00 0.00 91 1017.5
20260906041557 18 0 0.0 0.0 0.00 0.00 0.00 90 1017.4
20260906041047 19 0 0.0 0.0 0.00 0.00 0.00 90 1017.3
20260906040546 19 0 0.0 0.0 0.00 0.00 0.00 91 1017.3
20260906040107 19 0 0.0 0.0 0.00 0.00 0.00 91 1017.2
20260906035545 19 0 0.0 0.0 0.00 0.00 0.00 91 1017.2
20260906035046 19 0 0.0 0.0 0.00 0.00 0.00 90 1017.2
20260906034605 19 0 0.0 0.0 0.00 0.00 0.00 90 1017.2
20260906034046 19 0 0.0 0.0 0.00 0.00 0.00 90 1017.3
20260906033543 19 0 0.0 0.0 0.00 0.00 0.00 90 1017.3
20260906033059 19 0 0.0 0.0 0.00 0.00 0.00 90 1017.3
20260906032547 19 0 0.0 0.0 0.00 0.00 0.00 89 1017.2
20260906032046 19 0 0.0 0.0 0.00 0.00 0.00 89 1017.3
20260906031556 19 0 0.0 0.0 0.00 0.00 0.00 89 1017.3
20260906031045 19 0 0.0 0.0 0.00 0.00 0.00 89 1017.2
20260906030546 19 0 0.0 0.0 0.00 0.00 0.00 89 1017.2
20260906025545 19 0 0.0 0.0 0.00 0.00 0.00 89 1017.2
20260906025044 20 0 0.0 0.0 0.00 0.00 0.00 89 1017.3
20260906024601 20 0 0.0 0.0 0.00 0.00 0.00 88 1017.3
20260906024045 20 0 0.0 0.0 0.00 0.00 0.00 89 1017.1
20260906023545 20 0 0.0 0.0 0.00 0.00 0.00 89 1017.1
20260906023058 20 0 0.0 0.0 0.00 0.00 0.00 89 1017.0
20260906022548 20 0 0.0 0.0 0.00 0.00 0.00 89 1016.8
20260906022046 20 0 0.0 0.0 0.00 0.00 0.00 88 1016.8
20260906021602 20 0 0.0 0.0 0.00 0.00 0.00 88 1016.8
20260906021043 20 0 0.0 0.0 0.00 0.00 0.00 88 1016.7
20260906020545 20 0 0.0 0.0 0.00 0.00 0.00 88 1016.8
20260906020059 20 0 0.0 0.0 0.00 0.00 0.00 88 1016.8
20260906015543 20 0 0.0 0.0 0.00 0.00 0.00 88 1016.9
20260906015043 20 0 0.0 0.0 0.00 0.00 0.00 88 1016.9
20260906014638 20 0 0.0 0.0 0.00 0.00 0.00 88 1017.1
20260906014043 20 0 0.0 0.0 0.00 0.00 0.00 88 1017.1
20260906013544 20 0 0.0 0.0 0.00 0.00 0.00 88 1017.1
20260906013102 20 0 0.0 0.0 0.00 0.00 0.00 88 1017.0
20260906012544 21 0 0.0 0.0 0.00 0.00 0.00 88 1017.0
20260906012044 21 0 0.0 0.0 0.00 0.00 0.00 88 1017.0
20260906011604 21 0 0.0 1.6 0.00 0.00 0.00 88 1017.1
20260906011044 21 0 0.0 1.6 0.00 0.00 0.00 88 1017.1
20260906010543 21 0 0.0 4.8 0.00 0.00 0.00 88 1017.1
20260906010101 21 0 0.0 4.8 0.00 0.00 0.00 88 1017.0
20260906005543 21 0 0.0 8.0 0.00 0.00 0.00 88 1017.2
20260906005043 21 20 3.2 8.0 0.00 0.00 0.00 88 1017.2
20260906004613 21 311 1.6 6.4 0.00 0.00 0.00 87 1017.1
20260906004046 21 352 1.6 9.7 0.00 0.00 0.00 87 1017.1
20260906003544 21 11 1.6 9.7 0.00 0.00 0.00 87 1017.1
20260906003114 21 31 1.6 9.7 0.00 0.00 0.00 87 1017.1
20260906002543 21 338 3.2 8.0 0.00 0.00 0.00 87 1016.9
20260906002044 21 5 3.2 8.0 0.00 0.00 0.00 87 1017.0
20260906001557 21 348 0.0 6.4 0.00 0.00 0.00 87 1017.0
20260906001044 21 15 1.6 6.4 0.00 0.00 0.00 87 1017.0
20260906000547 21 30 1.6 6.4 0.00 0.00 0.00 87 1016.8
20260906000100 21 24 1.6 11.3 0.00 0.00 0.00 87 1017.0
20260905235544 21 0 1.6 11.3 0.00 0.00 0.00 86 1017.0
20260905235044 22 35 1.6 19.3 0.00 0.00 0.00 86 1017.0
20260905234611 22 36 3.2 19.3 0.00 0.00 0.00 86 1017.1
20260905234044 22 10 4.8 19.3 0.00 0.00 0.00 86 1017.1
20260905233544 22 0 1.6 9.7 0.00 0.00 0.00 85 1017.1
20260905233059 22 26 3.2 9.7 0.00 0.00 0.00 85 1017.1
20260905232543 22 19 1.6 11.3 0.00 0.00 0.00 85 1017.0
20260905232046 22 340 4.8 11.3 0.00 0.00 0.00 84 1017.0
20260905231557 22 17 1.6 8.0 0.00 0.00 0.00 85 1017.1
20260905231047 22 0 0.0 12.9 0.00 0.00 0.00 85 1016.9
20260905230547 22 296 1.6 12.9 0.00 0.00 0.00 84 1016.8
20260905230110 22 34 3.2 12.9 0.00 0.00 0.00 84 1016.9
20260905225544 22 0 4.8 12.9 0.00 0.00 0.00 83 1016.8
20260905225044 22 30 3.2 11.3 0.00 0.00 0.00 83 1016.8
20260905224610 23 19 3.2 9.7 0.00 0.00 0.00 83 1016.7
20260905224044 23 350 1.6 14.5 0.00 0.00 0.00 83 1016.8
20260905223541 23 5 4.8 14.5 0.00 0.00 0.00 82 1016.8
20260905223058 23 50 1.6 9.7 0.00 0.00 0.00 83 1016.8
20260905222544 23 0 3.2 11.3 0.00 0.00 0.00 82 1016.9
20260905222045 23 0 1.6 11.3 0.00 0.00 0.00 82 1016.8
20260905221616 23 355 3.2 14.5 0.00 0.00 0.00 82 1016.7
20260905221044 23 23 1.6 14.5 0.00 0.00 0.00 82 1016.6
20260905220544 23 5 4.8 14.5 0.00 0.00 0.00 81 1016.5
20260905220100 24 41 4.8 12.9 0.00 0.00 0.00 81 1016.5
20260905215544 24 66 4.8 16.1 0.00 0.00 0.00 81 1016.3
20260905215045 24 350 6.4 16.1 0.00 0.00 0.00 80 1016.1
20260905214601 25 5 4.8 16.1 0.00 0.00 0.00 80 1016.2
20260905214043 25 27 4.8 12.9 0.00 0.00 0.00 79 1016.1
20260905213544 25 24 4.8 12.9 0.00 0.00 0.00 79 1015.9
20260905213103 25 26 3.2 12.9 0.00 0.00 0.00 79 1015.9
20260905212543 25 53 4.8 14.5 0.00 0.00 0.00 79 1015.8
20260905212045 25 19 4.8 20.9 0.00 0.00 0.00 79 1015.7
20260905211602 25 44 3.2 20.9 0.00 0.00 0.00 78 1015.8
20260905211043 25 52 6.4 20.9 0.00 0.00 0.00 78 1015.8
20260905210542 25 26 3.2 17.7 0.00 0.00 0.00 78 1015.8
20260905210059 25 299 6.4 17.7 0.00 0.00 0.00 78 1015.7
20260905205544 25 19 4.8 16.1 0.00 0.00 0.00 78 1015.7
20260905205044 25 30 4.8 16.1 0.00 0.00 0.00 78 1015.7
20260905204555 25 360 8.0 16.1 0.00 0.00 0.00 77 1015.8
20260905204044 25 30 4.8 17.7 0.00 0.00 0.00 78 1015.7
20260905203542 25 42 4.8 17.7 0.00 0.00 0.00 78 1015.9
20260905203105 25 5 4.8 16.1 0.00 0.00 0.00 79 1015.9
20260905202542 26 33 4.8 17.7 0.00 0.00 0.00 79 1015.8
20260905202042 26 16 6.4 17.7 0.00 0.00 0.00 79 1015.8
20260905201615 26 92 4.8 17.7 0.00 0.00 0.00 79 1015.9
20260905201044 26 49 8.0 16.1 0.00 0.00 0.00 79 1015.9
20260905200544 26 25 3.2 19.3 0.00 0.00 0.00 78 1015.8
20260905195544 26 236 3.2 14.5 0.00 0.00 0.00 78 1015.9
20260905195044 26 321 4.8 14.5 0.00 0.00 0.00 77 1015.9
20260905194557 26 26 3.2 12.9 0.00 0.00 0.00 78 1015.7
20260905194047 26 12 3.2 9.7 0.00 0.00 0.00 78 1015.7
20260905193541 26 277 1.6 9.7 0.00 0.00 0.00 79 1015.8
20260905193114 26 30 3.2 9.7 0.00 0.00 0.00 79 1015.9
20260905192546 26 0 1.6 14.5 0.00 0.00 0.00 78 1015.9
20260905192045 26 14 3.2 14.5 0.00 0.00 0.00 78 1015.8
20260905191558 26 5 1.6 9.7 0.00 0.00 0.00 79 1015.8
20260905191045 26 42 3.2 9.7 0.00 0.00 0.00 79 1015.8
20260905190545 26 39 1.6 16.1 0.00 0.00 0.00 78 1015.8
20260905185545 26 345 3.2 9.7 0.00 0.00 0.00 79 1015.9
20260905185049 26 55 3.2 9.7 0.00 0.00 0.00 80 1015.8
20260905184606 26 26 1.6 6.4 0.00 0.00 0.00 80 1015.8
20260905184047 26 13 1.6 6.4 0.00 0.00 0.00 81 1015.8
20260905183546 25 18 0.0 6.4 0.00 0.00 0.00 83 1015.9
20260905183100 25 16 1.6 6.4 0.00 0.00 0.00 82 1016.0
20260905182545 25 18 1.6 6.4 0.00 0.00 0.00 82 1015.9
20260905182046 25 352 0.0 6.4 0.00 0.00 0.00 82 1016.0
20260905181609 25 24 1.6 6.4 0.00 0.00 0.00 82 1016.0
20260905181047 25 5 3.2 8.0 0.00 0.00 0.00 82 1016.0
20260905180546 25 0 1.6 8.0 0.00 0.00 0.00 83 1016.0
20260905180104 25 44 1.6 6.4 0.00 0.00 0.00 84 1016.0
20260905175546 25 0 0.0 3.2 0.00 0.00 0.00 84 1015.9
20260905175046 24 0 0.0 6.4 0.00 0.00 0.00 85 1015.8
20260905174605 24 0 0.0 11.3 0.00 0.00 0.00 84 1015.8
20260905174045 24 0 3.2 11.3 0.00 0.00 0.00 84 1016.0
20260905173546 24 17 0.0 4.8 0.00 0.00 0.00 85 1016.1
20260905173057 24 26 0.0 8.0 0.00 0.00 0.00 85 1016.1
20260905172545 24 0 1.6 8.0 0.00 0.00 0.00 85 1016.0
20260905172045 23 355 1.6 8.0 0.00 0.00 0.00 86 1016.0
20260905171604 23 0 0.0 6.4 0.00 0.00 0.00 86 1016.0
20260905171046 23 5 0.0 6.4 0.00 0.00 0.00 87 1016.0
20260905170546 23 0 0.0 4.8 0.00 0.00 0.00 87 1016.0
20260905170100 23 0 0.0 6.4 0.00 0.00 0.00 86 1016.1
20260905165545 23 350 1.6 6.4 0.00 0.00 0.00 86 1016.3
20260905165045 23 0 1.6 9.7 0.00 0.00 0.00 86 1016.2
20260905164558 23 351 0.0 9.7 0.00 0.00 0.00 86 1016.3
20260905164048 23 55 3.2 11.3 0.00 0.00 0.00 86 1016.3
20260905163545 23 45 3.2 11.3 0.00 0.00 0.00 87 1016.4
20260905163058 23 336 3.2 8.0 0.00 0.00 0.00 87 1016.2
20260905162545 23 25 0.0 6.4 0.00 0.00 0.00 88 1016.3
20260905162046 23 5 1.6 6.4 0.00 0.00 0.00 88 1016.2
20260905161605 23 0 1.6 6.4 0.00 0.00 0.00 88 1016.2
20260905161046 23 0 0.0 4.8 0.00 0.00 0.00 88 1016.2
20260905160547 23 42 1.6 4.8 0.00 0.00 0.00 89 1016.2
20260905160100 23 0 0.0 8.0 0.00 0.00 0.00 89 1016.2
20260905155545 23 5 3.2 9.7 0.00 0.00 0.00 89 1016.2
20260905155045 22 0 1.6 11.3 0.00 0.00 0.00 89 1016.1
20260905154616 22 21 1.6 11.3 0.00 0.00 0.00 90 1016.0
20260905154045 22 0 0.0 4.8 0.00 0.00 0.00 91 1016.0
20260905153545 22 0 0.0 4.8 0.00 0.00 0.00 92 1016.1
20260905153057 22 0 0.0 0.0 0.00 0.00 0.00 92 1016.0
20260905152545 22 0 0.0 6.4 0.00 0.00 0.00 92 1016.0
20260905152046 22 0 0.0 6.4 0.00 0.00 0.00 93 1016.0
20260905151605 22 0 0.0 4.8 0.00 0.00 0.00 93 1016.0
20260905151048 22 0 0.0 8.0 0.00 0.00 0.00 93 1015.8
20260905150545 22 5 1.6 8.0 0.00 0.00 0.00 93 1015.8
20260905150059 22 0 0.0 3.2 0.00 0.00 0.00 93 1015.8
20260905145546 22 0 0.0 3.2 0.00 0.00 0.00 94 1015.7
20260905145045 22 0 0.0 6.4 0.00 0.00 0.00 94 1015.7
20260905144558 22 0 0.0 6.4 0.00 0.00 0.00 94 1015.7
20260905144047 22 26 0.0 8.0 0.00 0.00 0.00 94 1015.6
20260905143545 22 0 0.0 8.0 0.00 0.00 0.00 94 1015.6
20260905143056 22 0 1.6 9.7 0.00 0.00 0.00 95 1015.4
20260905142545 21 0 1.6 11.3 0.00 0.00 0.00 95 1015.3
20260905142045 21 11 1.6 11.3 0.00 0.00 0.00 95 1015.4
20260905141559 21 0 0.0 8.0 0.00 0.00 0.00 95 1015.4
20260905141045 21 0 0.0 8.0 0.00 0.00 0.00 95 1015.4
20260905140546 21 0 0.0 8.0 0.00 0.00 0.00 95 1015.4
20260905135547 21 32 1.6 8.0 0.00 0.00 0.00 95 1015.2
20260905135046 21 0 0.0 9.7 0.00 0.00 0.00 96 1015.3
20260905134556 21 0 1.6 9.7 0.00 0.00 0.00 96 1015.3
20260905134045 21 0 0.0 6.4 0.00 0.00 0.00 96 1015.3
20260905133546 21 0 0.0 6.4 0.00 0.00 0.00 96 1015.3
20260905133056 21 0 1.6 6.4 0.00 0.00 0.00 96 1015.2
20260905132547 21 0 0.0 6.4 0.00 0.00 0.00 96 1015.3
20260905132100 21 0 0.0 6.4 0.00 0.00 0.00 96 1015.4
20260905131609 21 0 0.0 6.4 0.00 0.00 0.00 96 1015.5
20260905131044 21 0 0.0 6.4 0.00 0.00 0.00 96 1015.8
20260905130549 21 15 0.0 6.4 0.00 0.00 0.00 96 1015.6
20260905130101 21 0 1.6 6.4 0.00 0.00 0.00 96 1015.4
20260905125545 21 0 0.0 6.4 0.00 0.00 0.00 96 1015.3
20260905125044 21 0 0.0 6.4 0.00 0.00 0.00 96 1015.1
20260905124603 21 17 0.0 12.9 0.00 0.00 0.00 96 1015.1
20260905124043 21 22 1.6 12.9 0.00 0.00 0.00 96 1014.9
20260905123545 21 0 0.0 6.4 0.00 0.00 0.00 96 1014.9
20260905123106 21 0 0.0 3.2 0.00 0.00 0.00 96 1014.7
20260905122542 21 0 0.0 4.8 0.00 0.00 0.00 96 1014.6
20260905122045 21 0 0.0 6.4 0.00 0.00 0.00 96 1014.5
20260905121603 21 32 0.0 6.4 0.00 0.00 0.00 96 1014.4
20260905121045 21 0 1.6 9.7 0.00 0.00 0.00 96 1014.4
20260905120544 21 0 3.2 12.9 0.00 0.00 0.00 96 1014.4
20260905120100 21 326 1.6 12.9 0.00 0.00 0.00 96 1014.3
20260905115545 21 0 0.0 8.0 0.00 0.03 0.00 96 1014.3
20260905115044 21 50 0.0 9.7 0.00 0.03 0.00 96 1014.3
20260905114559 21 337 3.2 9.7 0.00 0.03 0.00 96 1014.2
20260905114044 21 15 1.6 9.7 0.00 0.03 0.00 96 1014.2
20260905113545 21 22 0.0 12.9 0.00 0.03 0.00 96 1014.0
20260905113058 21 24 4.8 12.9 0.00 0.03 0.00 95 1014.0
20260905112542 21 34 3.2 12.9 0.00 0.03 0.00 95 1013.9
20260905112042 21 16 3.2 11.3 0.00 0.03 0.00 95 1013.9
20260905111609 21 31 3.2 11.3 0.00 0.03 0.00 95 1013.9
20260905111042 21 0 0.0 9.7 0.00 0.03 0.00 95 1013.8
20260905110542 21 26 1.6 9.7 0.00 0.03 0.00 95 1013.8
20260905110100 21 0 0.0 8.0 0.00 0.03 0.00 95 1013.8
20260905105545 21 9 0.0 8.0 0.00 0.03 0.00 95 1013.6
20260905105047 21 0 0.0 8.0 0.00 0.03 0.00 95 1013.7
20260905104613 21 0 0.0 8.0 0.00 0.03 0.00 95 1013.6
20260905104045 21 350 0.0 6.4 0.00 0.03 0.00 95 1013.6
20260905103544 20 5 0.0 6.4 0.00 0.03 0.00 95 1013.7
20260905103109 20 0 0.0 0.0 0.00 0.03 0.00 95 1013.6
20260905102544 20 0 0.0 0.0 0.00 0.03 0.00 95 1013.7
20260905102042 20 0 0.0 0.0 0.00 0.03 0.00 95 1013.6
20260905101604 20 0 0.0 0.0 0.00 0.03 0.00 95 1013.6
20260905101045 20 0 0.0 0.0 0.00 0.03 0.00 95 1013.4
20260905100544 20 0 0.0 0.0 0.00 0.03 0.00 94 1013.4
20260905100106 20 0 0.0 0.0 0.00 0.03 0.00 94 1013.5
20260905095545 20 0 0.0 0.0 0.00 0.03 0.00 94 1013.5
20260905095042 20 0 0.0 0.0 0.00 0.03 0.00 94 1013.5
20260905094601 20 0 0.0 0.0 0.00 0.03 0.00 94 1013.4
20260905094044 20 0 0.0 0.0 0.00 0.03 0.00 94 1013.4
20260905093542 20 0 0.0 0.0 0.00 0.03 0.00 94 1013.5
20260905093054 20 0 0.0 0.0 0.00 0.03 0.00 94 1013.5
20260905092544 21 0 0.0 0.0 0.00 0.03 0.00 94 1013.4
20260905092042 21 0 0.0 0.0 0.00 0.03 0.00 94 1013.4
20260905091633 21 0 0.0 0.0 0.00 0.03 0.00 94 1013.5
20260905091044 21 0 0.0 0.0 0.00 0.03 0.00 94 1013.5
20260905090545 21 0 0.0 0.0 0.00 0.03 0.00 94 1013.6
20260905090058 21 0 0.0 0.0 0.00 0.03 0.00 94 1013.6
20260905085545 21 0 0.0 0.0 0.00 0.03 0.00 94 1013.6
20260905085042 21 0 0.0 0.0 0.00 0.03 0.00 94 1013.5
20260905084614 21 0 0.0 0.0 0.00 0.03 0.00 94 1013.5
20260905084042 21 0 0.0 0.0 0.00 0.03 0.00 94 1013.5
20260905083543 21 0 0.0 0.0 0.00 0.03 0.00 93 1013.3
20260905083059 21 0 0.0 0.0 0.00 0.03 0.00 94 1013.3
20260905082542 21 0 0.0 0.0 0.00 0.03 0.00 93 1013.1
20260905082042 21 0 0.0 0.0 0.00 0.03 0.00 93 1013.1
20260905081602 21 0 0.0 0.0 0.00 0.03 0.00 93 1013.1
20260905081043 21 0 0.0 0.0 0.00 0.03 0.00 93 1013.2
20260905080544 21 0 0.0 0.0 0.00 0.03 0.00 93 1013.3
20260905080107 21 0 0.0 0.0 0.00 0.03 0.00 93 1013.2
20260905075544 21 0 0.0 0.0 0.00 0.03 0.00 93 1013.2
20260905075042 21 0 0.0 0.0 0.00 0.03 0.00 93 1013.3
20260905074614 21 0 0.0 0.0 0.00 0.03 0.00 93 1013.2
20260905074045 21 0 0.0 0.0 0.00 0.03 0.00 93 1013.3
20260905073544 21 0 0.0 0.0 0.00 0.03 0.00 93 1013.2
20260905073059 21 0 0.0 0.0 0.00 0.03 0.00 93 1013.2
20260905072544 21 0 0.0 0.0 0.00 0.03 0.00 93 1013.3
20260905072044 21 0 0.0 0.0 0.00 0.03 0.00 93 1013.3
20260905071607 21 0 0.0 0.0 0.00 0.03 0.00 93 1013.3
20260905071046 21 0 0.0 0.0 0.00 0.03 0.00 93 1013.4
20260905070546 21 0 0.0 0.0 0.00 0.03 0.00 93 1013.4
20260905070110 21 0 0.0 0.0 0.00 0.03 0.00 93 1013.5
20260905065547 21 0 0.0 0.0 0.00 0.03 0.00 93 1013.5
20260905065047 21 0 0.0 0.0 0.00 0.03 0.00 93 1013.5
20260905064557 21 0 0.0 0.0 0.00 0.03 0.00 93 1013.4
20260905064045 22 0 0.0 0.0 0.00 0.03 0.00 93 1013.3
20260905063547 22 0 0.0 0.0 0.00 0.03 0.00 94 1013.3
20260905063059 22 0 0.0 0.0 0.00 0.03 0.00 94 1013.2
20260905062546 22 0 0.0 0.0 0.00 0.03 0.00 94 1013.3
20260905062046 22 0 0.0 0.0 0.00 0.03 0.00 94 1013.3
20260905061613 22 0 0.0 0.0 0.00 0.03 0.00 94 1013.3
20260905061047 22 0 0.0 0.0 0.00 0.03 0.00 94 1013.3
20260905060546 22 0 0.0 0.0 0.00 0.03 0.00 94 1013.2
20260905060059 21 0 0.0 0.0 0.00 0.03 0.00 92 1013.1
20260905055547 22 0 0.0 0.0 0.00 0.03 0.00 92 1013.5
20260905055048 22 0 0.0 0.0 0.00 0.03 0.00 92 1013.6
20260905054601 22 0 0.0 0.0 0.00 0.03 0.00 92 1013.6
20260905054046 22 0 0.0 0.0 0.00 0.03 0.00 92 1013.7
20260905053547 22 0 0.0 0.0 0.00 0.03 0.00 92 1013.7
20260905053057 22 0 0.0 0.0 0.00 0.03 0.00 92 1013.7
20260905052546 22 0 0.0 0.0 0.00 0.03 0.00 92 1013.8